Satellite-Ground Cal/Val Site Overpasses Predictions

Prediction of Satellite NPP Overpassing Cal/Val Site: Antarctic Dome C

Ground Cal/Val Site Location: Latitude: -75.10, Longitude: 123.35; Satellite-Ground Site NADIR distance within 100 km.

Table of predicted overpasses for the next 14.0 days since TLE Epoch: 11/29/2013
Interval Starting Time Ending Time Minimum Distance Time Minimum Distance (km)
1 11/29/2013 14:50:14 11/29/2013 14:50:44 11/29/2013 14:50:29 10.98
2 12/01/2013 07:33:07 12/01/2013 07:33:36 12/01/2013 07:33:22 5.29
3 12/04/2013 14:56:40 12/04/2013 14:57:08 12/04/2013 14:56:54 25.82
4 12/05/2013 14:37:59 12/05/2013 14:38:16 12/05/2013 14:38:07 81.12
5 12/06/2013 07:39:33 12/06/2013 07:40:00 12/06/2013 07:39:47 31.62
6 12/07/2013 07:20:50 12/07/2013 07:21:08 12/07/2013 07:20:59 78.40
7 12/09/2013 15:03:09 12/09/2013 15:03:31 12/09/2013 15:03:20 63.20
8 12/10/2013 14:44:19 12/10/2013 14:44:45 12/10/2013 14:44:32 45.92
9 12/11/2013 07:46:01 12/11/2013 07:46:23 12/11/2013 07:46:12 67.05


NCC Satellite Cal/Val Overpasses Prediction Service
